This is the latest recevied weather packets stored in our database for station/object iw0uwf-4. If no packets are shown the sender has not sent any weather packets the latest 1 day(s).
| Time | Temp. | Humidity | Pressure | Rain* | Wind** | Luminosity | Snow |
|---|---|---|---|---|---|---|---|
| 1778013606 | 15.56° C | 87% | 1005.7 hPa | 0 mm | 1.79 m/s, 249° | 0 W/m² | - |
| 1778013543 | 15.56° C | 87% | 1005.6 hPa | 0 mm | 1.79 m/s, 239° | 0 W/m² | - |
| 1778013483 | 15.56° C | 87% | 1005.7 hPa | 0 mm | 1.79 m/s, 234° | 0 W/m² | - |
| 1778013425 | 15.56° C | 87% | 1005.7 hPa | 0 mm | 1.79 m/s, 234° | 0 W/m² | - |
| 1778013364 | 15° C | 87% | 1005.6 hPa | 0 mm | 1.79 m/s, 233° | 0 W/m² | - |
| 1778013303 | 15° C | 87% | 1005.6 hPa | 0 mm | 1.34 m/s, 220° | 0 W/m² | - |
| 1778013243 | 15° C | 87% | 1005.7 hPa | 0 mm | 1.34 m/s, 213° | 0 W/m² | - |
| 1778013183 | 15° C | 87% | 1005.6 hPa | 0 mm | 0.89 m/s, 220° | 0 W/m² | - |
| 1778013124 | 15° C | 87% | 1005.8 hPa | 0 mm | 0.89 m/s, 211° | 0 W/m² | - |
| 1778013064 | 15° C | 87% | 1005.6 hPa | 0 mm | 0.89 m/s, 203° | 0 W/m² | - |
| 1778013004 | 15° C | 87% | 1005.7 hPa | 0 mm | 0.45 m/s, 205° | 0 W/m² | - |
| 1778012945 | 15° C | 86% | 1005.7 hPa | 0 mm | 0.45 m/s, 198° | 0 W/m² | - |
| 1778012884 | 15° C | 86% | 1005.6 hPa | 0 mm | 0.45 m/s, 194° | 0 W/m² | - |
| 1778012824 | 15° C | 86% | 1005.6 hPa | 0 mm | 0.45 m/s, 199° | 0 W/m² | - |
| 1778012764 | 15° C | 86% | 1005.7 hPa | 0 mm | 0.45 m/s, 198° | 0 W/m² | - |
| 1778012704 | 15° C | 86% | 1005.7 hPa | 0 mm | 0.45 m/s, 188° | 0 W/m² | - |
| 1778012644 | 15° C | 86% | 1005.7 hPa | 0 mm | 0 m/s | 0 W/m² | - |
| 1778012585 | 15.56° C | 86% | 1005.6 hPa | 0 mm | 0.45 m/s, 209° | 0 W/m² | - |
| 1778012524 | 15.56° C | 86% | 1005.6 hPa | 0 mm | 0 m/s | 0 W/m² | - |
| 1778012464 | 15.56° C | 86% | 1005.6 hPa | 0 mm | 0.45 m/s, 204° | 0 W/m² | - |
| 1778012223 | 15.56° C | 86% | 1005.7 hPa | 0 mm | 0.45 m/s, 207° | 0 W/m² | - |
| 1778012163 | 15.56° C | 86% | 1005.7 hPa | 0 mm | 0.45 m/s, 220° | 0 W/m² | - |
| 1778012104 | 15.56° C | 86% | 1005.6 hPa | 0 mm | 0.45 m/s, 229° | 0 W/m² | - |
| 1778012044 | 15.56° C | 86% | 1005.7 hPa | 0 mm | 0.89 m/s, 236° | 0 W/m² | - |
| 1778011984 | 15.56° C | 86% | 1005.5 hPa | 0 mm | 0.89 m/s, 243° | 0 W/m² | - |
* Rain latest hour (hover to see other rain measurements)
** Current wind speed in m/s (hover to see current wind gust speed)